Location: Boley
(53.1150°N, 8.2269°W)
Time: 00:12:22
(UTC+00:00)

Cosmos 2333 Rocket - Pass Details

Date: 15 May 2026
Orbit: 840 x 862 km, 70.8° (Epoch: 9 June)

Event Time Altitude Azimuth Distance (km) Brightness Sun altitude
Rises 21:32:46 0° 326° (NNW) 3,422 7.6 -8.4°
Reaches altitude 10° 21:35:13 10° 324° (NW) 2,486 6.3 -8.7°
Maximum altitude 21:40:53 68° 243° (WSW) 918 2.5 -9.2°
Enters shadow 21:46:30 10° 162° (SSE) 2,466 4.0 -9.7°
